EST,Max TemperatureF,Mean TemperatureF,Min TemperatureF,Max Dew PointF,MeanDew PointF,Min DewpointF,Max Humidity, Mean Humidity, Min Humidity, Max Sea Level PressureIn, Mean Sea Level PressureIn, Min Sea Level PressureIn, Max VisibilityMiles, Mean VisibilityMiles, Min VisibilityMiles, Max Wind SpeedMPH, Mean Wind SpeedMPH, Max Gust SpeedMPH,PrecipitationIn, CloudCover, Events, WindDirDegrees
2013-1-1,47,44,40,40,35,26,92,69,45,30.06,30.00,29.92,10,10,7,14,5,17,0.15,8,Rain,221
2013-1-2,44,40,35,37,32,25,92,75,57,30.24,30.11,30.00,10,9,5,10,4,13,0.11,8,Rain,36
2013-1-3,40,33,26,24,19,15,81,61,40,30.28,30.23,30.18,10,10,10,8,3,9,0.00,6,,111
2013-1-4,47,36,25,26,22,19,92,65,37,30.27,30.22,30.16,10,10,9,15,6,18,0.00,1,,258
2013-1-5,50,37,23,30,23,19,76,54,31,30.40,30.31,30.24,10,10,10,12,5,14,T,5,Rain,180
2013-1-6,54,46,37,36,31,27,85,63,41,30.23,30.14,30.05,10,10,10,12,5,15,0.03,6,Rain,252
2013-1-7,50,41,31,31,27,25,75,57,39,30.47,30.37,30.17,10,10,7,18,4,23,0.00,2,,12
2013-1-8,51,39,27,36,31,26,92,71,50,30.50,30.44,30.40,10,10,8,9,2,15,0.00,4,Fog,193
2013-1-9,67,52,36,50,43,34,85,68,51,30.42,30.37,30.31,10,10,9,15,6,18,0.00,5,,224
2013-1-10,60,48,36,48,34,25,100,64,27,30.59,30.51,30.40,10,10,8,9,3,17,0.00,4,Fog,53
2013-1-11,49,42,34,47,41,29,100,83,65,30.50,30.28,30.12,10,5,0,12,3,14,0.03,7,Fog-Rain,208
2013-1-12,54,51,48,53,50,48,100,95,89,30.18,30.14,30.10,5,2,0,12,2,14,0.00,8,Fog,207
2013-1-13,63,58,52,60,56,52,100,95,90,30.14,30.09,30.04,10,3,0,13,8,17,0.00,7,Fog,168
2013-1-14,64,55,45,61,55,42,97,92,87,30.26,30.14,30.04,10,7,1,21,9,26,0.95,7,Rain,141
2013-1-15,45,43,40,41,40,39,96,93,89,30.32,30.25,30.13,10,7,2,18,7,25,0.93,8,Rain,33
2013-1-16,46,42,37,44,39,36,100,96,92,30.12,30.04,29.93,10,6,1,15,5,17,0.48,8,Rain,3
2013-1-17,46,40,33,45,39,31,100,95,89,30.14,30.07,30.00,8,3,0,17,6,25,1.56,8,Fog-Rain-Snow,27
2013-1-18,41,35,28,33,28,20,100,72,44,30.55,30.38,30.13,10,5,0,17,5,22,T,3,Fog-Snow,300
2013-1-19,53,41,28,30,27,22,85,62,38,30.50,30.34,30.10,10,10,10,17,9,22,0.00,0,,199
2013-1-20,61,48,34,31,28,27,64,47,29,30.09,30.00,29.91,10,10,10,23,11,29,0.00,0,,239
2013-1-21,55,42,29,27,23,12,70,48,25,30.12,29.99,29.80,10,10,10,20,6,26,0.00,1,,226
2013-1-22,34,28,21,16,2,-6,49,35,21,30.32,30.18,29.96,10,10,10,21,10,28,0.00,1,,311
2013-1-23,34,24,14,10,3,-4,73,47,21,30.39,30.28,30.13,10,10,9,18,5,23,T,4,Snow,317
2013-1-24,32,26,19,23,13,0,88,58,28,30.57,30.29,30.02,10,8,2,25,11,33,T,6,Snow,354
2013-1-25,27,21,15,20,13,1,92,63,33,30.54,30.30,30.10,10,7,0,14,5,20,0.12,6,Fog-Snow,207
2013-1-26,39,28,16,26,21,14,100,80,59,30.46,30.23,30.08,10,7,1,13,2,14,0.00,6,,113
2013-1-27,40,32,23,25,21,18,88,66,44,30.63,30.55,30.47,10,9,6,9,2,14,0.00,5,,160
2013-1-28,55,43,30,42,34,24,92,76,59,30.53,30.35,30.14,10,7,2,20,10,25,0.21,7,Rain,198
2013-1-29,74,59,43,53,48,40,93,71,49,30.17,30.11,30.05,10,9,6,10,7,14,0.00,4,,194
2013-1-30,72,66,59,62,59,54,87,77,66,30.02,29.77,29.34,10,10,10,36,20,49,0.02,8,Rain,187
2013-1-31,69,52,35,63,35,14,93,61,29,29.98,29.61,29.23,10,8,0,41,19,54,0.74,5,Fog-Rain,256